Location: Kings Park
(40.8862°N, 73.2573°W)
Time: 05:17:40
(UTC+00:00)

Cosmos 220 Rocket - Pass Details

Date: 29 October 2020
Orbit: 574 x 617 km, 74.0° (Epoch: 29 November)

Event Time Altitude Azimuth Distance (km) Brightness Sun altitude
Rises 22:33:13 0° 180° (S) 2,823 7.6 -8.4°
Reaches altitude 10° 22:35:30 10° 172° (S) 1,933 6.6 -8.8°
Maximum altitude 22:39:33 40° 103° (ESE) 897 4.5 -9.5°
Drops below altitude 10° 22:43:40 10° 34° (NE) 1,971 6.2 -10.3°
Enters shadow 22:45:55 - 27° (NNE) 2,843 7.1 -10.7°
